This is the latest recevied weather packets stored in our database for station/object NE1CU. If no packets are shown the sender has not sent any weather packets the latest 10 day(s).
| Time | Temp. | Humidity | Pressure | Rain* | Wind** | Luminosity | Snow |
|---|---|---|---|---|---|---|---|
| 1778109767 | 15° C | 91% | 1007.3 hPa | 0 mm | - | 14 W/m² | - |
| 1778109465 | 15° C | 91% | 1007.3 hPa | 0 mm | - | 25 W/m² | - |
| 1778109164 | 15° C | 91% | 1007.1 hPa | 0 mm | - | 26 W/m² | - |
| 1778108860 | 15° C | 92% | 1007.2 hPa | 0 mm | - | 21 W/m² | - |
| 1778108557 | 15° C | 91% | 1007.2 hPa | 0 mm | - | 13 W/m² | - |
| 1778108254 | 15° C | 91% | 1007.3 hPa | 0 mm | - | 13 W/m² | - |
| 1778107951 | 15° C | 91% | 1007 hPa | 0 mm | - | 10 W/m² | - |
| 1778107647 | 15° C | 91% | 1007.2 hPa | 0 mm | - | 8 W/m² | - |
| 1778107344 | 15° C | 91% | 1007 hPa | 0 mm | - | 14 W/m² | - |
| 1778107040 | 14.44° C | 91% | 1007 hPa | 0 mm | - | 12 W/m² | - |
| 1778106736 | 14.44° C | 91% | 1007.1 hPa | 0 mm | - | 22 W/m² | - |
| 1778106434 | 14.44° C | 91% | 1006.9 hPa | 0 mm | - | 25 W/m² | - |
| 1778106129 | 14.44° C | 91% | 1007 hPa | 0 mm | - | 28 W/m² | - |
| 1778105827 | 14.44° C | 91% | 1007.1 hPa | 0 mm | - | 32 W/m² | - |
| 1778105525 | 14.44° C | 91% | 1007.1 hPa | 0 mm | - | 28 W/m² | - |
| 1778105222 | 14.44° C | 91% | 1006.9 hPa | 0 mm | - | 26 W/m² | - |
| 1778104916 | 14.44° C | 92% | 1007 hPa | 0 mm | - | 30 W/m² | - |
| 1778104613 | 14.44° C | 92% | 1006.8 hPa | 0 mm | - | 34 W/m² | - |
| 1778104309 | 13.89° C | 92% | 1007.1 hPa | 0 mm | - | 27 W/m² | - |
| 1778104006 | 13.89° C | 92% | 1006.8 hPa | 0 mm | - | 52 W/m² | - |
| 1778103703 | 13.89° C | 93% | 1006.9 hPa | 0 mm | - | 29 W/m² | - |
| 1778103402 | 13.89° C | 93% | 1006.9 hPa | 0 mm | - | 29 W/m² | - |
| 1778103098 | 13.89° C | 93% | 1006.9 hPa | 0 mm | - | 37 W/m² | - |
| 1778102796 | 13.89° C | 93% | 1006.7 hPa | 0 mm | - | 39 W/m² | - |
| 1778102490 | 13.89° C | 93% | 1006.9 hPa | 0 mm | - | 31 W/m² | - |
* Rain latest hour (hover to see other rain measurements)
** Current wind speed in m/s (hover to see current wind gust speed)